Concordia, KS

2:48 PM CST on December 04, 2016 (GMT -0600)
Blosser Municipal

Weather History for KCNK - June, 2014

Change the Weather History Date:

Tuesday, June 10, 2014

  Actual Average Record
Temperature  
Mean Temperature 69 °F 72 °F  
Max Temperature 81 °F 83 °F 104 °F (1933)
Min Temperature 57 °F 60 °F 45 °F (1979)
Degree Days  
Heating Degree Days 0 1  
Month to date heating degree days 1 10  
Since 1 June heating degree days 1 10  
Since 1 July heating degree days 5759 5405  
Cooling Degree Days 4 7  
Month to date cooling degree days 66 60  
Year to date cooling degree days 241 149  
Since 1 June cooling degree days 66 60  
Growing Degree Days 19 (Base 50)    
Moisture  
Dew Point 59 °F    
Average Humidity 71    
Maximum Humidity 100    
Minimum Humidity 42    
Precipitation  
Precipitation 0.00 in 0.13 in 2.25 in (1983)
Month to date precipitation 4.53 1.34  
Year to date precipitation 10.36 11.33  
Snow  
Snow 0.00 in 0.00 in T in (1900)
Month to date snowfall 0.0 0.0  
Year to date snowfall 16.9 13.7  
Since 1 July snowfall 23.2 20.2  
Snow Depth 0.00 in    
Sea Level Pressure  
Sea Level Pressure 29.85 in    
Wind  
Wind Speed 8 mph (NNE)    
Max Wind Speed 16 mph    
Max Gust Speed 22 mph    
Visibility 9 miles    
Events      
T = Trace of Precipitation, MM = Missing Value Source: NWS Daily Summary

Daily Weather History Graph

Daily Weather History Graph

Search for Another Location

Airport or City:

Trip Planner

Search our weather history database for the weather conditions in past years. The results will help you decide how hot, cold, wet, or windy it might be!

Date:

Astronomy

Jun. 10, 2014 Rise Set
Actual Time 6:02 AM CDT 8:57 PM CDT
Civil Twilight 5:30 AM CDT 9:29 PM CDT
Nautical Twilight 4:49 AM CDT 10:10 PM CDT
Astronomical Twilight 4:02 AM CDT 10:57 PM CDT
Moon 6:24 PM CDT (6/10) 4:08 AM CDT (6/10)
Length of Visible Light 15h 59m
Length of Day
14h 54m
Waxing Gibbous, 92% of the Moon is Illuminated
Jun 10
Waxing Gibbous
Jun 12
Full
Jun 19
Last Quarter
Jun 27
New
Jul 5
First Quarter

Hourly Weather History & Observations

Time (CDT) Temp. Heat Index Dew Point Humidity Pressure Visibility Wind Dir Wind Speed Gust Speed Precip Events Conditions
12:55 AM 64.0 °F - 60.1 °F 87% 29.84 in 10.0 mi NNE 13.8 mph - N/A   Partly Cloudy
1:55 AM 63.0 °F - 60.1 °F 90% 29.85 in 10.0 mi NNE 10.4 mph - N/A   Clear
2:55 AM 61.0 °F - 59.0 °F 93% 29.85 in 10.0 mi North 8.1 mph - N/A   Clear
3:55 AM 60.1 °F - 59.0 °F 96% 29.84 in 8.0 mi North 10.4 mph - N/A   Clear
4:55 AM 57.9 °F - 57.9 °F 100% 29.85 in 6.0 mi North 6.9 mph - N/A   Clear
5:55 AM 57.9 °F - 57.0 °F 97% 29.86 in 7.0 mi North 6.9 mph - N/A   Clear
6:55 AM 57.9 °F - 57.0 °F 97% 29.87 in 6.0 mi NNW 10.4 mph - N/A   Clear
7:55 AM 61.0 °F - 57.9 °F 90% 29.88 in 9.0 mi NNW 10.4 mph - N/A   Clear
8:55 AM 64.0 °F - 57.9 °F 80% 29.88 in 10.0 mi NNW 9.2 mph - N/A   Clear
9:55 AM 68.0 °F - 60.8 °F 78% 29.91 in 10.0 mi NNW 12.7 mph - N/A   Clear
10:55 AM 71.1 °F - 60.1 °F 68% 29.88 in 10.0 mi NNW 9.2 mph - N/A   Clear
11:55 AM 73.4 °F - 59.0 °F 61% 29.90 in 10.0 mi North 10.4 mph - N/A   Scattered Clouds
12:55 PM 75.9 °F - 57.9 °F 54% 29.86 in 10.0 mi North 9.2 mph - N/A   Scattered Clouds
1:55 PM 77.0 °F - 57.2 °F 50% 29.88 in 10.0 mi NNE 9.2 mph - N/A   Scattered Clouds
2:55 PM 78.1 °F - 57.0 °F 48% 29.84 in 10.0 mi ENE 5.8 mph - N/A   Clear
3:55 PM 78.8 °F - 55.4 °F 44% 29.86 in 10.0 mi NE 4.6 mph - N/A   Scattered Clouds
4:55 PM 79.0 °F - 57.0 °F 47% 29.81 in 10.0 mi NE 5.8 mph - N/A   Partly Cloudy
5:55 PM 80.1 °F 80.2 °F 55.9 °F 43% 29.81 in 10.0 mi NE 6.9 mph - N/A   Scattered Clouds
6:55 PM 79.0 °F - 55.9 °F 45% 29.80 in 10.0 mi East 4.6 mph - N/A   Partly Cloudy
7:55 PM 75.0 °F - 60.1 °F 60% 29.80 in 10.0 mi ESE 4.6 mph - N/A   Partly Cloudy
8:55 PM 71.1 °F - 64.0 °F 78% 29.80 in 10.0 mi ESE 3.5 mph - N/A   Clear
9:55 PM 66.2 °F - 60.8 °F 83% 29.84 in 10.0 mi ESE 4.6 mph - N/A   Scattered Clouds
10:55 PM 66.0 °F - 61.0 °F 84% 29.84 in 10.0 mi SE 6.9 mph - N/A   Partly Cloudy
11:55 PM 64.0 °F - 61.0 °F 90% 29.84 in 10.0 mi SSE 9.2 mph - N/A   Clear